^^
Station Historical Data
Daily Summary for October 12, 2017 Units:  Metric    English   Both
« Previous Day
Next Day »
Daily Weekly Monthly Yearly Custom
  High: Low: Average:
Temperature: 14.1 °C 1.4 °C 7.2 °C
Dew Point: 5.9 °C 0.2 °C 3.2 °C
Humidity: 96 % 52 % 78 %
Wind Speed: 1.6 km/h 0 km/h 0 km/h
Wind Gust: 12.9 km/h - -
Wind:- - ESE
Pressure: 1032.1 hPa 1029 hPa -
Precipitation: 0 mm    
Historical Graphs
 
 
Tabular Data for October 12, 2017
Time Temperature Dew Point Pressure Wind Wind Speed Wind Gust Humidity Rainfall Rate (Hourly) solar Conditions
00:09 4.2 °C 2.4 °C 1029 hPa Calm     88 % 0 mm WeatherDisplay:10.37 W/m2 SCT
00:14 4.2 °C 2.4 °C 1029 hPa Calm     88 % 0 mm WeatherDisplay:10.37 W/m2 FEW
00:19 4.2 °C 2.4 °C 1029 hPa Calm     88 % 0 mm WeatherDisplay:10.37 W/m2 FEW
00:24 4.2 °C 2.3 °C 1029 hPa Calm     88 % 0 mm WeatherDisplay:10.37 W/m2 FEW
00:29 4.2 °C 2.3 °C 1029 hPa Calm     88 % 0 mm WeatherDisplay:10.37 W/m2 FEW
00:34 4.2 °C 2.3 °C 1029 hPa Calm   1.6 km/h 88 % 0 mm WeatherDisplay:10.37 W/m2 FEW
00:39 4.1 °C 2.3 °C 1029 hPa Calm   1.6 km/h 88 % 0 mm WeatherDisplay:10.37 W/m2 FEW
00:44 4.1 °C 2.3 °C 1029 hPa Calm     88 % 0 mm WeatherDisplay:10.37 W/m2 FEW
00:49 4.1 °C 2.2 °C 1029.3 hPa Calm     88 % 0 mm WeatherDisplay:10.37 W/m2 FEW
00:54 4 °C 2.2 °C 1029 hPa Calm   1.6 km/h 88 % 0 mm WeatherDisplay:10.37 W/m2 FEW
00:59 4 °C 2.2 °C 1029 hPa Calm     88 % 0 mm WeatherDisplay:10.37 W/m2 FEW
01:09 4 °C 2.2 °C 1029.3 hPa Calm     88 % 0 mm WeatherDisplay:10.37 W/m2 FEW
01:14 4.1 °C 2.2 °C 1029.3 hPa Calm     88 % 0 mm WeatherDisplay:10.37 W/m2 SCT
01:19 4.1 °C 2.2 °C 1029.3 hPa Calm     88 % 0 mm WeatherDisplay:10.37 W/m2 SCT
01:24 4.1 °C 2.3 °C 1029.3 hPa Calm     88 % 0 mm WeatherDisplay:10.37 W/m2 SCT
01:29 4.1 °C 2.3 °C 1029.3 hPa Calm     88 % 0 mm WeatherDisplay:10.37 W/m2 SCT
01:34 4.2 °C 2.3 °C 1029.3 hPa Calm     88 % 0 mm WeatherDisplay:10.37 W/m2 SCT
01:39 4.2 °C 2.3 °C 1029.3 hPa Calm     88 % 0 mm WeatherDisplay:10.37 W/m2 SCT
01:49 4.2 °C 2.3 °C 1029.3 hPa Calm   1.6 km/h 88 % 0 mm WeatherDisplay:10.37 W/m2 SCT
01:54 4.2 °C 2.3 °C 1029.3 hPa Calm   1.6 km/h 88 % 0 mm WeatherDisplay:10.37 W/m2 SCT
01:59 4.2 °C 2.3 °C 1029.3 hPa Calm     88 % 0 mm WeatherDisplay:10.37 W/m2 SCT
02:04 4.1 °C 2.3 °C 1029.3 hPa Calm     88 % 0 mm WeatherDisplay:10.37 W/m2 SCT
02:09 4.1 °C 2.3 °C 1029.7 hPa Calm     88 % 0 mm WeatherDisplay:10.37 W/m2 SCT
02:14 4.1 °C 2.3 °C 1029.7 hPa Calm     88 % 0 mm WeatherDisplay:10.37 W/m2 FEW
02:19 4.1 °C 2.2 °C 1029.7 hPa Calm     88 % 0 mm WeatherDisplay:10.37 W/m2 FEW
02:24 4 °C 2.2 °C 1029.7 hPa Calm     88 % 0 mm WeatherDisplay:10.37 W/m2 FEW
02:29 4 °C 2.2 °C 1029.7 hPa Calm     88 % 0 mm WeatherDisplay:10.37 W/m2 FEW
02:34 3.9 °C 2.1 °C 1029.7 hPa Calm     88 % 0 mm WeatherDisplay:10.37 W/m2 FEW
02:39 3.9 °C 2.1 °C 1029.7 hPa Calm     88 % 0 mm WeatherDisplay:10.37 W/m2 FEW
02:44 3.8 °C 2 °C 1029.7 hPa Calm     88 % 0 mm WeatherDisplay:10.37 W/m2 FEW
02:49 3.8 °C 2.1 °C 1029.7 hPa Calm     89 % 0 mm WeatherDisplay:10.37 W/m2 FEW
02:54 3.7 °C 2.1 °C 1029.7 hPa Calm     89 % 0 mm WeatherDisplay:10.37 W/m2 FEW
02:59 3.7 °C 2 °C 1029.7 hPa Calm     89 % 0 mm WeatherDisplay:10.37 W/m2 FEW
03:04 3.6 °C 1.9 °C 1029.7 hPa Calm     89 % 0 mm WeatherDisplay:10.37 W/m2 FEW
03:09 3.6 °C 1.9 °C 1029.7 hPa Calm     89 % 0 mm WeatherDisplay:10.37 W/m2 FEW
03:14 3.5 °C 1.8 °C 1029.7 hPa Calm     89 % 0 mm WeatherDisplay:10.37 W/m2 SKC
03:19 3.4 °C 1.8 °C 1029.7 hPa Calm     89 % 0 mm WeatherDisplay:10.37 W/m2 SKC
03:24 3.4 °C 1.7 °C 1029.7 hPa Calm     89 % 0 mm WeatherDisplay:10.37 W/m2 SKC
03:29 3.3 °C 1.8 °C 1029.7 hPa Calm     90 % 0 mm WeatherDisplay:10.37 W/m2 SKC
03:34 3.3 °C 1.8 °C 1029.7 hPa Calm     90 % 0 mm WeatherDisplay:10.37 W/m2 SKC
03:39 3.2 °C 1.7 °C 1030 hPa Calm     90 % 0 mm WeatherDisplay:10.37 W/m2 SKC
03:44 3.2 °C 1.7 °C 1029.7 hPa Calm     90 % 0 mm WeatherDisplay:10.37 W/m2 SKC
03:49 3.2 °C 1.7 °C 1029.7 hPa Calm     90 % 0 mm WeatherDisplay:10.37 W/m2 SKC
03:54 3.1 °C 1.6 °C 1029.7 hPa Calm     90 % 0 mm WeatherDisplay:10.37 W/m2 SKC
03:59 3.1 °C 1.6 °C 1030 hPa Calm     90 % 0 mm WeatherDisplay:10.37 W/m2 SKC
04:04 3 °C 1.5 °C 1030 hPa Calm     90 % 0 mm WeatherDisplay:10.37 W/m2 SKC
04:09 3 °C 1.5 °C 1030 hPa Calm     90 % 0 mm WeatherDisplay:10.37 W/m2 SKC
04:14 2.9 °C 1.4 °C 1030 hPa Calm     90 % 0 mm WeatherDisplay:10.37 W/m2 SKC
04:19 2.9 °C 1.4 °C 1029.7 hPa Calm     90 % 0 mm WeatherDisplay:10.37 W/m2 SKC
04:24 2.9 °C 1.4 °C 1030 hPa Calm     90 % 0 mm WeatherDisplay:10.37 W/m2 SKC
04:29 2.8 °C 1.3 °C 1030 hPa Calm     90 % 0 mm WeatherDisplay:10.37 W/m2 SKC
04:34 2.8 °C 1.3 °C 1030 hPa Calm     90 % 0 mm WeatherDisplay:10.37 W/m2 SKC
04:39 2.7 °C 1.4 °C 1030 hPa Calm     91 % 0 mm WeatherDisplay:10.37 W/m2 SKC
04:44 2.7 °C 1.4 °C 1030 hPa Calm     91 % 0 mm WeatherDisplay:10.37 W/m2 SKC
04:49 2.7 °C 1.3 °C 1030 hPa Calm     91 % 0 mm WeatherDisplay:10.37 W/m2 SKC
04:54 2.6 °C 1.3 °C 1030 hPa Calm     91 % 0 mm WeatherDisplay:10.37 W/m2 SKC
04:59 2.6 °C 1.3 °C 1030.4 hPa Calm     91 % 0 mm WeatherDisplay:10.37 W/m2 SKC
05:04 2.6 °C 1.2 °C 1030.4 hPa Calm     91 % 0 mm WeatherDisplay:10.37 W/m2 SKC
05:09 2.5 °C 1.2 °C 1030.4 hPa Calm     91 % 0 mm WeatherDisplay:10.37 W/m2 SKC
05:14 2.5 °C 1.2 °C 1030.4 hPa Calm     91 % 0 mm WeatherDisplay:10.37 W/m2 SKC
05:19 2.4 °C 1.1 °C 1030.4 hPa Calm     91 % 0 mm WeatherDisplay:10.37 W/m2 SKC
05:24 2.4 °C 1.1 °C 1030.4 hPa Calm     91 % 0 mm WeatherDisplay:10.37 W/m2 SKC
05:29 2.4 °C 1.1 °C 1030.4 hPa Calm     91 % 0 mm WeatherDisplay:10.37 W/m2 SKC
05:34 2.3 °C 1 °C 1030.7 hPa Calm     91 % 0 mm WeatherDisplay:10.37 W/m2 SKC
05:39 2.3 °C 1 °C 1030.4 hPa Calm     91 % 0 mm WeatherDisplay:10.37 W/m2 SKC
05:44 2.3 °C 0.9 °C 1030.4 hPa Calm     91 % 0 mm WeatherDisplay:10.37 W/m2 SKC
05:49 2.2 °C 1.1 °C 1030.7 hPa Calm     92 % 0 mm WeatherDisplay:10.37 W/m2 SKC
05:54 2.2 °C 0.8 °C 1030.7 hPa Calm     91 % 0 mm WeatherDisplay:10.37 W/m2 SKC
05:59 2.1 °C 0.8 °C 1030.7 hPa Calm     91 % 0 mm WeatherDisplay:10.37 W/m2 SKC
06:04 2.1 °C 0.8 °C 1030.7 hPa Calm     91 % 0 mm WeatherDisplay:10.37 W/m2 SKC
06:09 2.1 °C 0.9 °C 1030.7 hPa Calm     92 % 0 mm WeatherDisplay:10.37 W/m2 SKC
06:14 2 °C 0.8 °C 1030.7 hPa Calm     92 % 0 mm WeatherDisplay:10.37 W/m2 SKC
06:24 1.9 °C 0.7 °C 1030.7 hPa Calm     92 % 0 mm WeatherDisplay:10.37 W/m2 SKC
06:29 1.8 °C 0.7 °C 1030.7 hPa Calm     92 % 0 mm WeatherDisplay:10.37 W/m2 SKC
06:34 1.8 °C 0.7 °C 1030.7 hPa Calm     92 % 0 mm WeatherDisplay:10.37 W/m2 SKC
06:39 1.8 °C 0.6 °C 1030.7 hPa Calm     92 % 0 mm WeatherDisplay:10.37 W/m2 SKC
06:44 1.8 °C 0.6 °C 1030.7 hPa Calm     92 % 0 mm WeatherDisplay:10.37 W/m2 SKC
06:49 1.7 °C 0.6 °C 1030.7 hPa Calm     92 % 0 mm WeatherDisplay:10.37 W/m2 SKC
06:59 1.7 °C 0.5 °C 1031 hPa Calm     92 % 0 mm WeatherDisplay:10.37 W/m2 SKC
07:04 1.6 °C 0.4 °C 1031 hPa Calm     92 % 0 mm WeatherDisplay:10.37 W/m2 SKC
07:09 1.6 °C 0.4 °C 1031 hPa Calm     92 % 0 mm WeatherDisplay:10.37 W/m2 SKC
07:19 1.6 °C 0.4 °C 1031 hPa Calm     92 % 0 mm WeatherDisplay:10.37 W/m2 FEW
07:24 1.5 °C 0.3 °C 1031 hPa Calm     92 % 0 mm WeatherDisplay:10.37 W/m2 FEW
07:34 1.4 °C 0.3 °C 1031.4 hPa Calm     92 % 0 mm WeatherDisplay:10.37 W/m2 FEW
07:39 1.4 °C 0.3 °C 1031.4 hPa Calm     92 % 0 mm WeatherDisplay:10.37 W/m2 FEW
07:44 1.4 °C 0.2 °C 1031.4 hPa Calm     92 % 0 mm WeatherDisplay:10.37 W/m2 FEW
07:49 1.4 °C 0.2 °C 1031.4 hPa Calm     92 % 0 mm WeatherDisplay:10.37 W/m2 FEW
07:54 1.4 °C 0.4 °C 1031.7 hPa Calm     93 % 0 mm WeatherDisplay:10.37 W/m2 FEW
07:59 1.4 °C 0.4 °C 1031.7 hPa Calm     93 % 0 mm WeatherDisplay:10.37 W/m2 FEW
08:04 1.4 °C 0.4 °C 1031.7 hPa Calm     93 % 0 mm WeatherDisplay:10.37 W/m2 FEW
08:09 1.4 °C 0.4 °C 1031.7 hPa Calm     93 % 0 mm WeatherDisplay:10.37 W/m2 FEW
08:14 1.5 °C 0.4 °C 1031.7 hPa Calm     93 % 0 mm WeatherDisplay:10.37 W/m2 FEW
08:19 1.6 °C 0.7 °C 1031.7 hPa Calm     94 % 0 mm WeatherDisplay:10.37 W/m2 FEW
08:24 1.7 °C 0.8 °C 1031.7 hPa Calm     94 % 0 mm WeatherDisplay:10.37 W/m2 FEW
08:29 1.8 °C 1 °C 1031.7 hPa Calm     94 % 0 mm WeatherDisplay:10.37 W/m2 FEW
08:34 2 °C 1.2 °C 1031.7 hPa Calm     94 % 0 mm WeatherDisplay:10.37 W/m2 FEW
08:39 2.2 °C 1.5 °C 1031.7 hPa Calm     95 % 0 mm WeatherDisplay:10.37 W/m2 FEW
08:44 2.4 °C 1.7 °C 1032.1 hPa Calm   1.6 km/h 95 % 0 mm WeatherDisplay:10.37 W/m2 FEW
08:49 2.7 °C 2 °C 1032.1 hPa Calm     95 % 0 mm WeatherDisplay:10.37 W/m2 FEW
08:54 2.9 °C 2.2 °C 1032.1 hPa Calm     95 % 0 mm WeatherDisplay:10.37 W/m2 FEW
08:59 3.2 °C 2.7 °C 1032.1 hPa Calm     96 % 0 mm WeatherDisplay:10.37 W/m2 FEW
09:04 3.4 °C 2.7 °C 1032.1 hPa Calm     95 % 0 mm WeatherDisplay:10.37 W/m2 FEW
09:09 3.7 °C 3.1 °C 1032.1 hPa Calm   1.6 km/h 96 % 0 mm WeatherDisplay:10.37 W/m2 FEW
09:19 4.2 °C 3.6 °C 1032.1 hPa Calm   3.2 km/h 96 % 0 mm WeatherDisplay:10.37 W/m2 FEW
09:24 4.4 °C 3.7 °C 1032.1 hPa ESE 1.6 km/h 12.9 km/h 95 % 0 mm WeatherDisplay:10.37 W/m2 FEW
09:39 5.5 °C 4.4 °C 1032.1 hPa Calm   3.2 km/h 93 % 0 mm WeatherDisplay:10.37 W/m2 FEW
09:44 5.9 °C 4.6 °C 1032.1 hPa Calm   3.2 km/h 91 % 0 mm WeatherDisplay:10.37 W/m2 FEW
09:49 6.3 °C 4.7 °C 1032.1 hPa Calm   3.2 km/h 89 % 0 mm WeatherDisplay:10.37 W/m2 FEW
09:59 7.2 °C 4.8 °C 1032.1 hPa Calm     85 % 0 mm WeatherDisplay:10.37 W/m2 FEW
10:04 7.7 °C 5.2 °C 1032.1 hPa Calm   1.6 km/h 84 % 0 mm WeatherDisplay:10.37 W/m2 FEW
10:09 8.2 °C 5.1 °C 1032.1 hPa Calm   1.6 km/h 81 % 0 mm WeatherDisplay:10.37 W/m2 FEW
10:19 9.1 °C 4.9 °C 1032.1 hPa Calm   3.2 km/h 75 % 0 mm WeatherDisplay:10.37 W/m2 SKC
10:24 9.4 °C 5.2 °C 1032.1 hPa Calm     75 % 0 mm WeatherDisplay:10.37 W/m2 SKC
10:29 9.7 °C 5.1 °C 1032.1 hPa Calm     73 % 0 mm WeatherDisplay:10.37 W/m2 SKC
10:34 9.9 °C 4.7 °C 1032.1 hPa Calm   6.4 km/h 70 % 0 mm WeatherDisplay:10.37 W/m2 SKC
10:39 10.2 °C 4.9 °C 1032.1 hPa Calm   6.4 km/h 70 % 0 mm WeatherDisplay:10.37 W/m2 SKC
10:44 10.3 °C 4.8 °C 1032.1 hPa Calm   3.2 km/h 69 % 0 mm WeatherDisplay:10.37 W/m2 SKC
10:54 10.4 °C 4.8 °C 1032.1 hPa Calm     68 % 0 mm WeatherDisplay:10.37 W/m2 SKC
10:59 10.5 °C 4.4 °C 1032.1 hPa Calm   4.8 km/h 66 % 0 mm WeatherDisplay:10.37 W/m2 SKC
11:04 10.6 °C 4.7 °C 1032.1 hPa Calm   4.8 km/h 67 % 0 mm WeatherDisplay:10.37 W/m2 SKC
11:09 10.7 °C 4.8 °C 1032.1 hPa Calm   1.6 km/h 67 % 0 mm WeatherDisplay:10.37 W/m2 SKC
11:14 10.7 °C 4.8 °C 1032.1 hPa Calm   3.2 km/h 67 % 0 mm WeatherDisplay:10.37 W/m2 SKC
11:19 10.8 °C 4.4 °C 1032.1 hPa Calm   8 km/h 65 % 0 mm WeatherDisplay:10.37 W/m2 SKC
11:24 10.8 °C 4.7 °C 1032.1 hPa Calm   3.2 km/h 66 % 0 mm WeatherDisplay:10.37 W/m2 SKC
11:29 10.9 °C 4.1 °C 1032.1 hPa Calm   4.8 km/h 63 % 0 mm WeatherDisplay:10.37 W/m2 SKC
11:34 11 °C 4.2 °C 1032.1 hPa SE 1.6 km/h 8 km/h 63 % 0 mm WeatherDisplay:10.37 W/m2 SKC
11:39 11.1 °C 4.5 °C 1032.1 hPa Calm   1.6 km/h 64 % 0 mm WeatherDisplay:10.37 W/m2 SKC
11:49 11.2 °C 4.4 °C 1032.1 hPa Calm   8 km/h 63 % 0 mm WeatherDisplay:10.37 W/m2 SKC
11:54 11.3 °C 4.6 °C 1032.1 hPa Calm   6.4 km/h 63 % 0 mm WeatherDisplay:10.37 W/m2 SKC
11:59 11.4 °C 4.2 °C 1031.7 hPa Calm   8 km/h 61 % 0 mm WeatherDisplay:10.37 W/m2 SKC
12:04 11.6 °C 4.3 °C 1032.1 hPa Calm   8 km/h 61 % 0 mm WeatherDisplay:10.37 W/m2 SKC
12:09 11.7 °C 4.4 °C 1031.7 hPa Calm   8 km/h 61 % 0 mm WeatherDisplay:10.37 W/m2 SKC
12:14 11.7 °C 4.2 °C 1031.7 hPa Calm   8 km/h 60 % 0 mm WeatherDisplay:10.37 W/m2 SKC
12:24 11.9 °C 4.4 °C 1031.7 hPa Calm   8 km/h 60 % 0 mm WeatherDisplay:10.37 W/m2 SKC
12:29 11.9 °C 4.7 °C 1031.7 hPa East 1.6 km/h 6.4 km/h 61 % 0 mm WeatherDisplay:10.37 W/m2 SKC
12:34 12 °C 4.2 °C 1031.7 hPa ENE 1.6 km/h 9.7 km/h 59 % 0 mm WeatherDisplay:10.37 W/m2 SKC
12:39 12.1 °C 4.3 °C 1031.7 hPa Calm   3.2 km/h 59 % 0 mm WeatherDisplay:10.37 W/m2 SKC
12:44 12.2 °C 4.7 °C 1031.7 hPa East 1.6 km/h 3.2 km/h 60 % 0 mm WeatherDisplay:10.37 W/m2 SKC
12:49 12.3 °C 4.7 °C 1031.7 hPa Calm   3.2 km/h 60 % 0 mm WeatherDisplay:10.37 W/m2 SKC
12:54 12.4 °C 5.1 °C 1031.4 hPa Calm   4.8 km/h 61 % 0 mm WeatherDisplay:10.37 W/m2 SKC
12:59 12.4 °C 4.9 °C 1031.4 hPa Calm     60 % 0 mm WeatherDisplay:10.37 W/m2 SKC
13:04 12.5 °C 4.4 °C 1031.4 hPa Calm   4.8 km/h 58 % 0 mm WeatherDisplay:10.37 W/m2 SKC
13:09 12.6 °C 5.1 °C 1031.4 hPa Calm   8 km/h 60 % 0 mm WeatherDisplay:10.37 W/m2 SKC
13:14 12.7 °C 4.2 °C 1031.4 hPa Calm   3.2 km/h 56 % 0 mm WeatherDisplay:10.37 W/m2 FEW
13:19 12.8 °C 4.2 °C 1031.4 hPa Calm     56 % 0 mm WeatherDisplay:10.37 W/m2 FEW
13:24 12.8 °C 4.5 °C 1031.4 hPa Calm   3.2 km/h 57 % 0 mm WeatherDisplay:10.37 W/m2 FEW
13:29 12.9 °C 4.8 °C 1031 hPa Calm   6.4 km/h 58 % 0 mm WeatherDisplay:10.37 W/m2 FEW
13:34 12.9 °C 4.6 °C 1031 hPa Calm   4.8 km/h 57 % 0 mm WeatherDisplay:10.37 W/m2 FEW
13:39 13 °C 4.7 °C 1030.7 hPa Calm     57 % 0 mm WeatherDisplay:10.37 W/m2 FEW
13:44 13 °C 5.2 °C 1030.7 hPa Calm   6.4 km/h 59 % 0 mm WeatherDisplay:10.37 W/m2 FEW
13:49 13.1 °C 4.7 °C 1030.7 hPa Calm   3.2 km/h 57 % 0 mm WeatherDisplay:10.37 W/m2 FEW
13:54 13.1 °C 4.5 °C 1030.7 hPa Calm   3.2 km/h 56 % 0 mm WeatherDisplay:10.37 W/m2 FEW
13:59 13.2 °C 4.8 °C 1030.7 hPa Calm   3.2 km/h 57 % 0 mm WeatherDisplay:10.37 W/m2 FEW
14:04 13.2 °C 4.6 °C 1030.4 hPa Calm   8 km/h 56 % 0 mm WeatherDisplay:10.37 W/m2 FEW
14:09 13.3 °C 4.2 °C 1030.4 hPa Calm   4.8 km/h 54 % 0 mm WeatherDisplay:10.37 W/m2 FEW
14:14 13.3 °C 5 °C 1030.4 hPa Calm   1.6 km/h 57 % 0 mm WeatherDisplay:10.37 W/m2 FEW
14:19 13.4 °C 4.5 °C 1030.7 hPa Calm   1.6 km/h 55 % 0 mm WeatherDisplay:10.37 W/m2 FEW
14:29 13.5 °C 4.6 °C 1030.4 hPa Calm   4.8 km/h 55 % 0 mm WeatherDisplay:10.37 W/m2 FEW
14:34 13.6 °C 4.7 °C 1030.4 hPa Calm   3.2 km/h 55 % 0 mm WeatherDisplay:10.37 W/m2 FEW
14:39 13.6 °C 4.4 °C 1030.4 hPa Calm   1.6 km/h 54 % 0 mm WeatherDisplay:10.37 W/m2 FEW
14:44 13.6 °C 5.3 °C 1030.4 hPa Calm   1.6 km/h 57 % 0 mm WeatherDisplay:10.37 W/m2 FEW
14:49 13.7 °C 5.1 °C 1030.4 hPa Calm   3.2 km/h 56 % 0 mm WeatherDisplay:10.37 W/m2 FEW
14:59 13.8 °C 4.6 °C 1030 hPa Calm     54 % 0 mm WeatherDisplay:10.37 W/m2 FEW
15:04 13.8 °C 4.7 °C 1030 hPa Calm   8 km/h 54 % 0 mm WeatherDisplay:10.37 W/m2 FEW
15:09 13.8 °C 4.4 °C 1030 hPa Calm   4.8 km/h 53 % 0 mm WeatherDisplay:10.37 W/m2 FEW
15:14 13.9 °C 4.4 °C 1030 hPa Calm   4.8 km/h 53 % 0 mm WeatherDisplay:10.37 W/m2 FEW
15:19 13.9 °C 4.2 °C 1030 hPa Calm   4.8 km/h 52 % 0 mm WeatherDisplay:10.37 W/m2 FEW
15:24 13.9 °C 4.8 °C 1029.7 hPa Calm   1.6 km/h 54 % 0 mm WeatherDisplay:10.37 W/m2 FEW
15:29 13.9 °C 4.8 °C 1029.7 hPa Calm   8 km/h 54 % 0 mm WeatherDisplay:10.37 W/m2 FEW
15:34 14 °C 4.6 °C 1029.7 hPa Calm   8 km/h 53 % 0 mm WeatherDisplay:10.37 W/m2 FEW
15:39 14 °C 4.3 °C 1029.7 hPa Calm   4.8 km/h 52 % 0 mm WeatherDisplay:10.37 W/m2 FEW
15:44 14 °C 4.3 °C 1029.3 hPa Calm   6.4 km/h 52 % 0 mm WeatherDisplay:10.37 W/m2 FEW
15:49 14.1 °C 4.8 °C 1029.3 hPa Calm   1.6 km/h 54 % 0 mm WeatherDisplay:10.37 W/m2 FEW
15:54 14 °C 4.3 °C 1029.3 hPa East 1.6 km/h 12.9 km/h 52 % 0 mm WeatherDisplay:10.37 W/m2 FEW
15:59 14 °C 4.8 °C 1029.7 hPa Calm   6.4 km/h 54 % 0 mm WeatherDisplay:10.37 W/m2 FEW
16:04 14 °C 4.6 °C 1029.7 hPa Calm   3.2 km/h 53 % 0 mm WeatherDisplay:10.37 W/m2 FEW
16:09 13.9 °C 4.8 °C 1029.7 hPa SE 1.6 km/h 6.4 km/h 54 % 0 mm WeatherDisplay:10.37 W/m2 FEW
16:14 13.9 °C 4.5 °C 1029.7 hPa Calm   4.8 km/h 53 % 0 mm WeatherDisplay:10.37 W/m2 FEW
16:19 13.9 °C 4.2 °C 1029.7 hPa Calm   4.8 km/h 52 % 0 mm WeatherDisplay:10.37 W/m2 FEW
16:24 13.9 °C 4.7 °C 1029.3 hPa Calm   3.2 km/h 54 % 0 mm WeatherDisplay:10.37 W/m2 FEW
16:29 13.9 °C 4.4 °C 1029.3 hPa Calm     53 % 0 mm WeatherDisplay:10.37 W/m2 FEW
16:34 13.8 °C 4.7 °C 1029.3 hPa Calm     54 % 0 mm WeatherDisplay:10.37 W/m2 FEW
16:39 13.8 °C 5.2 °C 1029.3 hPa Calm   3.2 km/h 56 % 0 mm WeatherDisplay:10.37 W/m2 FEW
16:44 13.7 °C 4.6 °C 1029.3 hPa Calm   3.2 km/h 54 % 0 mm WeatherDisplay:10.37 W/m2 FEW
16:49 13.7 °C 4.8 °C 1029.3 hPa Calm     55 % 0 mm WeatherDisplay:10.37 W/m2 FEW
16:54 13.7 °C 4.8 °C 1029.7 hPa Calm   4.8 km/h 55 % 0 mm WeatherDisplay:10.37 W/m2 FEW
16:59 13.6 °C 4.4 °C 1029.7 hPa Calm     54 % 0 mm WeatherDisplay:10.37 W/m2 FEW
17:04 13.5 °C 4.9 °C 1029.7 hPa Calm   1.6 km/h 56 % 0 mm WeatherDisplay:10.37 W/m2 FEW
17:09 13.4 °C 5.1 °C 1029.7 hPa Calm     57 % 0 mm WeatherDisplay:10.37 W/m2 FEW
17:14 13.3 °C 5 °C 1029.7 hPa Calm     57 % 0 mm WeatherDisplay:10.37 W/m2 SCT
17:19 13.3 °C 4.9 °C 1029.7 hPa Calm     57 % 0 mm WeatherDisplay:10.37 W/m2 SCT
17:24 13.2 °C 5.1 °C 1029.7 hPa Calm     58 % 0 mm WeatherDisplay:10.37 W/m2 SCT
17:29 13.1 °C 5 °C 1029.7 hPa Calm     58 % 0 mm WeatherDisplay:10.37 W/m2 SCT
17:34 12.9 °C 5.4 °C 1029.7 hPa Calm     60 % 0 mm WeatherDisplay:10.37 W/m2 SCT
17:39 12.8 °C 5.3 °C 1029.3 hPa Calm     60 % 0 mm WeatherDisplay:10.37 W/m2 SCT
17:44 12.7 °C 5.4 °C 1029.3 hPa Calm     61 % 0 mm WeatherDisplay:10.37 W/m2 SCT
17:49 12.6 °C 5.7 °C 1029.3 hPa Calm     63 % 0 mm WeatherDisplay:10.37 W/m2 SCT
17:54 12.4 °C 5.3 °C 1029.3 hPa Calm     62 % 0 mm WeatherDisplay:10.37 W/m2 SCT
17:59 12.2 °C 5.8 °C 1029.3 hPa Calm     65 % 0 mm WeatherDisplay:10.37 W/m2 SCT
18:04 12.1 °C 5.7 °C 1029.3 hPa Calm     65 % 0 mm WeatherDisplay:10.37 W/m2 SCT
18:09 11.9 °C 5.7 °C 1029.3 hPa Calm     66 % 0 mm WeatherDisplay:10.37 W/m2 SCT
18:14 11.7 °C 5.7 °C 1029.3 hPa Calm     67 % 0 mm WeatherDisplay:10.37 W/m2 SCT
18:19 11.4 °C 5.9 °C 1029.3 hPa Calm     69 % 0 mm WeatherDisplay:10.37 W/m2 SCT
18:24 11.2 °C 5.5 °C 1029.3 hPa Calm     68 % 0 mm WeatherDisplay:10.37 W/m2 SCT
18:29 10.9 °C 5.5 °C 1029.3 hPa Calm     69 % 0 mm WeatherDisplay:10.37 W/m2 SCT
18:34 10.7 °C 5.3 °C 1029.3 hPa Calm     69 % 0 mm WeatherDisplay:10.37 W/m2 SCT
18:39 10.4 °C 5.2 °C 1029.3 hPa Calm     70 % 0 mm WeatherDisplay:10.37 W/m2 SCT
18:44 10.2 °C 5.2 °C 1029.3 hPa Calm     71 % 0 mm WeatherDisplay:10.37 W/m2 SCT
18:49 10.1 °C 5.3 °C 1029.3 hPa Calm     72 % 0 mm WeatherDisplay:10.37 W/m2 SCT
18:54 9.9 °C 5.3 °C 1029.3 hPa Calm     73 % 0 mm WeatherDisplay:10.37 W/m2 SCT
18:59 9.7 °C 5.1 °C 1029.3 hPa Calm     73 % 0 mm WeatherDisplay:10.37 W/m2 SCT
19:04 9.6 °C 5.2 °C 1029.3 hPa Calm     74 % 0 mm WeatherDisplay:10.37 W/m2 SCT
19:09 9.4 °C 5.2 °C 1029.7 hPa Calm     75 % 0 mm WeatherDisplay:10.37 W/m2 SCT
19:14 9.2 °C 5 °C 1029.7 hPa Calm     75 % 0 mm WeatherDisplay:10.37 W/m2 FEW
19:19 9 °C 5 °C 1029.7 hPa Calm     76 % 0 mm WeatherDisplay:10.37 W/m2 FEW
19:29 8.7 °C 4.8 °C 1029.7 hPa Calm     77 % 0 mm WeatherDisplay:10.37 W/m2 FEW
19:34 8.4 °C 4.8 °C 1029.7 hPa Calm     78 % 0 mm WeatherDisplay:10.37 W/m2 FEW
19:44 8.1 °C 4.6 °C 1029.3 hPa Calm     79 % 0 mm WeatherDisplay:10.37 W/m2 FEW
19:49 7.9 °C 4.7 °C 1029.3 hPa Calm     80 % 0 mm WeatherDisplay:10.37 W/m2 FEW
19:54 7.7 °C 4.5 °C 1029.3 hPa Calm     80 % 0 mm WeatherDisplay:10.37 W/m2 FEW
19:59 7.6 °C 4.5 °C 1029.3 hPa Calm     81 % 0 mm WeatherDisplay:10.37 W/m2 FEW
20:04 7.4 °C 4.3 °C 1029.3 hPa Calm     81 % 0 mm WeatherDisplay:10.37 W/m2 FEW
20:09 7.2 °C 4.2 °C 1029.3 hPa Calm     81 % 0 mm WeatherDisplay:10.37 W/m2 FEW
20:14 7.1 °C 4.2 °C 1029.3 hPa Calm     82 % 0 mm WeatherDisplay:10.37 W/m2 SKC
20:19 6.9 °C 4.1 °C 1029.7 hPa Calm     82 % 0 mm WeatherDisplay:10.37 W/m2 SKC
20:24 6.8 °C 4.1 °C 1029.7 hPa Calm     83 % 0 mm WeatherDisplay:10.37 W/m2 SKC
20:29 6.7 °C 4 °C 1029.7 hPa Calm     83 % 0 mm WeatherDisplay:10.37 W/m2 SKC
20:34 6.6 °C 4.1 °C 1029.7 hPa Calm     84 % 0 mm WeatherDisplay:10.37 W/m2 SKC
20:39 6.4 °C 3.9 °C 1029.7 hPa Calm     84 % 0 mm WeatherDisplay:10.37 W/m2 SKC
20:44 6.4 °C 4.1 °C 1029.7 hPa Calm     85 % 0 mm WeatherDisplay:10.37 W/m2 SKC
20:49 6.3 °C 3.9 °C 1029.7 hPa Calm     85 % 0 mm WeatherDisplay:10.37 W/m2 SKC
20:54 6.2 °C 3.8 °C 1029.7 hPa Calm     85 % 0 mm WeatherDisplay:10.37 W/m2 SKC
20:59 6.1 °C 3.9 °C 1029.7 hPa Calm     86 % 0 mm WeatherDisplay:10.37 W/m2 SKC
21:04 5.9 °C 3.8 °C 1029.7 hPa Calm     86 % 0 mm WeatherDisplay:10.37 W/m2 SKC
21:09 5.9 °C 3.7 °C 1029.7 hPa Calm     86 % 0 mm WeatherDisplay:10.37 W/m2 SKC
21:14 5.8 °C 3.6 °C 1029.7 hPa Calm     86 % 0 mm WeatherDisplay:10.37 W/m2 SKC
21:19 5.7 °C 3.6 °C 1030 hPa Calm     86 % 0 mm WeatherDisplay:10.37 W/m2 SKC
21:24 5.6 °C 3.4 °C 1030 hPa Calm     86 % 0 mm WeatherDisplay:10.37 W/m2 SKC
21:29 5.5 °C 3.3 °C 1029.7 hPa Calm     86 % 0 mm WeatherDisplay:10.37 W/m2 SKC
21:34 5.4 °C 3.2 °C 1029.7 hPa Calm     86 % 0 mm WeatherDisplay:10.37 W/m2 SKC
21:39 5.3 °C 3.2 °C 1029.7 hPa Calm     86 % 0 mm WeatherDisplay:10.37 W/m2 SKC
21:44 5.2 °C 3.1 °C 1029.7 hPa Calm     86 % 0 mm WeatherDisplay:10.37 W/m2 SKC
21:49 5.2 °C 3.2 °C 1029.7 hPa Calm     87 % 0 mm WeatherDisplay:10.37 W/m2 SKC
21:54 5.1 °C 3.1 °C 1029.7 hPa Calm     87 % 0 mm WeatherDisplay:10.37 W/m2 SKC
21:59 5 °C 3 °C 1029.7 hPa Calm     87 % 0 mm WeatherDisplay:10.37 W/m2 SKC
22:04 4.9 °C 2.9 °C 1029.7 hPa Calm     87 % 0 mm WeatherDisplay:10.37 W/m2 SKC
22:09 4.8 °C 3 °C 1029.7 hPa Calm     88 % 0 mm WeatherDisplay:10.37 W/m2 SKC
22:14 4.7 °C 2.9 °C 1029.7 hPa Calm     88 % 0 mm WeatherDisplay:10.37 W/m2 SKC
22:19 4.7 °C 2.8 °C 1029.7 hPa Calm     88 % 0 mm WeatherDisplay:10.37 W/m2 SKC
22:24 4.6 °C 2.8 °C 1029.7 hPa Calm     88 % 0 mm WeatherDisplay:10.37 W/m2 SKC
22:29 4.5 °C 2.7 °C 1029.7 hPa Calm     88 % 0 mm WeatherDisplay:10.37 W/m2 SKC
22:34 4.4 °C 2.8 °C 1029.7 hPa Calm     89 % 0 mm WeatherDisplay:10.37 W/m2 SKC
22:39 4.3 °C 2.7 °C 1029.7 hPa Calm     89 % 0 mm WeatherDisplay:10.37 W/m2 SKC
22:44 4.3 °C 2.6 °C 1029.7 hPa Calm     89 % 0 mm WeatherDisplay:10.37 W/m2 SKC
22:49 4.2 °C 2.6 °C 1029.7 hPa Calm     89 % 0 mm WeatherDisplay:10.37 W/m2 SKC
22:54 4.1 °C 2.4 °C 1029.7 hPa Calm     89 % 0 mm WeatherDisplay:10.37 W/m2 SKC
22:59 4.1 °C 2.4 °C 1029.7 hPa Calm     89 % 0 mm WeatherDisplay:10.37 W/m2 SKC
23:04 4 °C 2.3 °C 1029.7 hPa Calm     89 % 0 mm WeatherDisplay:10.37 W/m2 SKC
23:09 3.9 °C 2.4 °C 1029.7 hPa Calm     90 % 0 mm WeatherDisplay:10.37 W/m2 SKC
23:14 3.9 °C 2.4 °C 1029.7 hPa Calm     90 % 0 mm WeatherDisplay:10.37 W/m2 SKC
23:19 3.8 °C 2.3 °C 1029.7 hPa Calm     90 % 0 mm WeatherDisplay:10.37 W/m2 SKC
23:24 3.8 °C 2.3 °C 1029.7 hPa Calm     90 % 0 mm WeatherDisplay:10.37 W/m2 SKC
23:29 3.7 °C 2.2 °C 1029.7 hPa Calm     90 % 0 mm WeatherDisplay:10.37 W/m2 SKC
23:34 3.7 °C 2.4 °C 1029.3 hPa Calm     91 % 0 mm WeatherDisplay:10.37 W/m2 SKC
23:39 3.7 °C 2.3 °C 1029.3 hPa Calm     91 % 0 mm WeatherDisplay:10.37 W/m2 SKC
23:44 3.6 °C 2.3 °C 1029.3 hPa Calm     91 % 0 mm WeatherDisplay:10.37 W/m2 SKC
23:49 3.6 °C 2.3 °C 1029.3 hPa Calm     91 % 0 mm WeatherDisplay:10.37 W/m2 SKC
23:54 3.6 °C 2.2 °C 1029.3 hPa Calm     91 % 0 mm WeatherDisplay:10.37 W/m2 SKC
23:59 3.6 °C 2.2 °C 1029.3 hPa Calm     91 % 0 mm WeatherDisplay:10.37 W/m2 SKC
Juneau County Weather
Compliments of Weather Underground - 2.75 mb